NOAA 16 DEB

Satellite information

Favourite Embed

Satellite Type and Status

DEBRISIN ORBIT

Key statistics

Satellite NOAA 16 DEB at a glance.

Uptime

9165

Days in orbit

Revolutions

≈ 14.2

Per day

Orbit

SSO

Sun Synchronous Orbit

Inclination

98.7

Latest

Satellite identification and parameters

Extended collection of information and parameters for NOAA 16 DEB.

Object identification

Identified? True

Debris? True

Object name: NOAA 16 DEB

International designator: 2000-055GR

Object number (NORAD): 41289

Object ID (CCSDS): 41289

Country: UNITED STATES OF AMERICA (US)

Current information (Y/N): Y

RCS size: SMALL

Orbital parameters

Period: 101.633 minutes

Inclination: 98.6589 deg

SMA: 7214.12 km

Apoapsis: 860.385 km

Periapsis: 811.585 km

RAAN: 316.0716 deg

Eccentricy: 0.00338225

Argument of periapsis: 207.5277 deg

Mean anomaly: 152.4107 deg

Mean motion: 14.1686244 rev/day

Mean motion (dot): 0.00003775 rev/day2

B* drag term: 0.0018933632 1/REarth

Two-line elements (TLE)

Creation date: Oct. 24, 2025, 6:33 p.m.

Reference frame: TEME

Reference center: EARTH

Epoch: Oct. 23, 2025, 11:54 p.m. UTC

TLE line 0: 0 NOAA 16 DEB

TLE line 1: 1 41289U 00055GR 25296.99588156 .00003775 00000-0 18934-2 0 9998

TLE line 2: 2 41289 98.6589 316.0716 0033823 207.5277 152.4107 14.16862440505257

Live tracking on map

Real-time ground track for satellite NOAA 16 DEB.

In-orbit conjunctions

A list of the most updated potential collisions computed for object NOAA 16 DEB.

Target Orbit TCA Probability of collision Miss distance Type
COSMOS 1844 LEO 2025-01-24 11:50:05 0.0001528569 282.0 (m) PAYLOAD
SL-3 R/B LEO 2024-10-21 00:52:40 0.0001594767 172.0 (m) ROCKET BODY

Associated space launch

The NOAA K, L and M POES satellites begin the fifth generation of improved environmental monitoring in support of NOAA missions. The instrument payload has significant improvements and additions/deletions. The instrument changes have effected the spacecraft subsystems and data formats.

NOAA 16 DEB was lifted into orbit during the mission ‘Titan II SLV | NOAA 16’, on board a Titan II SLV space rocket.

The launch took place on Sept. 21, 2000, 10:22 a.m. from Space Launch Complex 4W.

For more information about the launch, click the button.

Launch to space Titan II SLV | NOAA 16
Titan II SLV | NOAA 16

Agency: N/A

Status: Launch Successful

Launch date: Sept. 21, 2000, 10:22 a.m. UTC

Rocket: Titan II SLV

Launch pad: Space Launch Complex 4W

Location: Vandenberg SFB, CA, USA

...

Latest news about this satellite

There are no fresh news available about this satellite. Check back as we update our databases every day.


Newsletter sign-up

Weekly statistics, charts and insights to help you stay on top of the space industry.